Hourly Data Report for September 05, 2017

All times are specified in Local Standard Time (LST). Add 1 hour to adjust for Daylight Saving Time where and when it is observed.

PENTICTON A
BRITISH COLUMBIA

49°27'45.000" N
119°36'08.000" W
344.40 m
1126146
71889
YYF

Download Data

Hourly Data (September 2017)
Hourly Data Report for September 5, 2017
Temp Definition
°C
Dew Point Temp Definition
°C
Rel Hum Definition
%
Wind Dir Definition
10's deg

Wind Spd Definition
km/h
Visibility Definition
km
Stn Press Definition
kPa
Hmdx Definition


Wind Chill Definition


Weather Definition


TIME
00:00 Legend Double Dagger 16.1 9.7 65 36 1 19.3 97.81     LegendNANA
01:00 Legend Double Dagger 16.8 10.1 64 36 1 19.3 97.83     Mostly Cloudy
02:00 Legend Double Dagger 16.4 10.8 69 36 2 19.3 97.87     LegendNANA
03:00 Legend Double Dagger 15.3 9.1 66 5 4 19.3 97.90     LegendNANA
04:00 Legend Double Dagger 15.4 9.7 69 34 6 19.3 97.91     Mostly Cloudy
05:00 Legend Double Dagger 14.0 8.7 70 4 3 16.1 97.93     LegendNANA
06:00 Legend Double Dagger 14.9 8.7 66 35 4 16.1 97.97     LegendNANA
07:00 Legend Double Dagger 16.0 9.5 65 36 2 12.9 97.98     Mainly Clear
08:00 Legend Double Dagger 19.6 11.3 59 4 6 12.9 97.95     LegendNANA
09:00 Legend Double Dagger 21.5 12.6 56 36 8 9.7 97.96     Smoke
10:00 Legend Double Dagger 22.0 12.1 53 36 9 9.7 97.92     Smoke
11:00 Legend Double Dagger 22.7 12.3 51 36 12 9.7 97.89 25   Smoke
12:00 Legend Double Dagger 24.1 11.9 46 35 9 9.7 97.83 26   Smoke
13:00 Legend Double Dagger 24.4 12.2 46 35 7 9.7 97.78 27   Smoke
14:00 Legend Double Dagger 23.9 11.8 46 34 8 9.7 97.76 26   Smoke
15:00 Legend Double Dagger 22.9 12.8 53 5 9 12.9 97.67 26   LegendNANA
16:00 Legend Double Dagger 23.5 13.5 53 17 4 16.1 97.68 27   Mostly Cloudy
17:00 Legend Double Dagger 22.7 14.2 58 20 8 16.1 97.61 26   LegendNANA
18:00 Legend Double Dagger 21.8 14.9 64 36 1 16.1 97.60 26   LegendNANA
19:00 Legend Double Dagger 19.8 13.5 67 6 8 16.1 97.62     Cloudy
20:00 Legend Double Dagger 20.6 12.8 61 23 4 16.1 97.62     LegendNANA
21:00 Legend Double Dagger 19.2 15.0 76 6 4 16.1 97.63     LegendNANA
22:00 Legend Double Dagger 18.4 11.9 66 31 7 16.1 97.69     Mainly Clear
23:00 Legend Double Dagger 19.0 12.8 67 24 5 12.9 97.64     LegendNANA

Notes on Data Quality.

Legend

  • E = Estimated
  • M = Missing
  • NA = Not Available
  • ‡ = Partner data that is not subject to review by the National Climate Archives
Date modified: